Showing default

EUTE 36D, 59346

Orbit data source: Space-Track

EUTE 36D, 59346 is a payload satellite owned by EutelsatSA (FR) in GEO that was launched on Sat, 30 Mar 2024 UTC via an FALCON 9 launch vehicle from the Air Force Eastern Test Range (AFETR). Payload-class satellites include a variety of spacecraft equipped with specific instruments for various scientific and technological missions. These include communications satellites like Starlink; space stations such as the ISS; scientific satellites like the Hubble; Earth observation satellites from companies like Planet Labs, Umbra, and HawkEye 360; GPS; miniature CubeSats for education and research; and military/defense satellites.

Not visible in the next 10 days
Identifier
59346, 2024-059A
Orbit
GEO
Country
Flag of FRFR / EUTE
Related business
Manufacturer
ADST/ADSUK
Mission
Operational Commercial Communications
Bus & Motor
EUROSTAR NEO, PPS-5000
Mass
5,000 kg wet, ~5,000 kg dry
Launch date (UTC)
2024-03-30 (2 years ago)
Launch vehicle
FALCON 9
Launch site
Air Force Eastern Test Range (AFETR)
Object type
Payload
Rocket body
Debris
Shape & HBR
Box + 2 Pan, 20.0 m
Radar Cross Section
58.239 m², Large (>1 m²)

Expand to show TLE details & history
Last TLE update: 7 hours ago

TLE from 7 hours ago
0 EUTE 36D
1 59346U 24059A   26173.32359818  .00000000  00000-0  00000+0 0  9994
2 59346   0.0194   0.9109 0000403  42.2569  19.6986  1.00262386  8192
Epoch: 2026-06-22T07:45Z
TLE epoch observation values (Epoch: 2026-06-22T07:45:58.882Z)
Latitude
0.03454°
Longitude
35.87072°
Altitude
35,787.114 km
Speed
3.075 km/s
True Right ascension
04h 11m 30s
True Declination
0° 02' 04"
Sunlit
Object was in daylight at epoch
Visualization orbit readout
Latitude
Unknown
Longitude
Unknown
Altitude
Unknown
Speed
Unknown
Apparent Right ascension
Unknown
Apparent Declination
Unknown
Sunlit
N/A
Visualization observer readout
Local Sidereal Time
02:13:22
Azimuth
Unknown
Elevation
Unknown
Doppler factor
Unknown
Orbital elements
Apogee altitude
35,792 km
Perigee altitude
35,788.601 km
Semi-major axis
42,168.437 km
Eccentricity
0.00004
Inclination
0.0194°
RAAN
0.9109°
Arg. of periapsis
42.2569°
True anomaly
19.70016°
Mean anomaly
19.6986°
Eccentric anomaly
19.69938°
Mean motion
0.25065 °/min
Orbital period
1,436.28 mins
BSTAR
0
Loading maneuver chart data...
Computing Atmospheric mass density...
Loading historical data...
Loading historical data...
Loading historical data...
Loading historical data...
Loading historical data...
Loading historical data...
Loading historical data...
Other satellites on launch #59 in the year 2024 (2024-03-30 UTC)

Documentation

Showing up to 5 results
|